[[[{"header":{"parameterUnit":"kt","parameterCategory":2,"dx":1,"dy":1,"la1":30.253999710083008,"la2":30.299108505249023,"lo1":-89.0895004272461,"lo2":-89.04439544677734,"nx":28,"ny":28,"refTime":"2022-09-26T21:00:00:Z","depth":"0","parameterNumber":2,"parameterNumberName":"U-component_of_CURRENTS"},"data":[-0.268,-0.2625,-0.262,-0.255,-0.2552,-0.2507,-0.2534,-0.2708,-0.3033,-0.372,-0.4392,-0.4948,-0.5261,-0.5451,-0.5227,-0.4924,-0.4625,-0.4495,-0.4327,-0.4482,-0.4457,-0.4433,-0.4463,-0.4671,-0.4671,-0.4162,-0.416,-0.4158,-0.2737,-0.2723,-0.2719,-0.2711,-0.2694,-0.2738,-0.281,-0.2865,-0.3044,-0.3526,-0.3786,-0.4447,-0.4585,-0.4704,-0.4778,-0.4592,-0.4344,-0.4421,-0.4279,-0.4174,-0.4265,-0.4296,-0.4471,-0.4471,-0.4471,-0.4471,-0.4471,-0.4471,-0.2843,-0.2821,-0.2827,-0.2824,-0.2844,-0.2865,-0.2871,-0.3016,-0.314,-0.3419,-0.3557,-0.3931,-0.4132,-0.4272,-0.4199,-0.423,-0.404,-0.4164,-0.417,-0.4032,-0.3966,-0.4039,-0.4154,-0.4153,-0.4152,-0.4151,-0.4151,0,-0.2912,-0.2921,-0.2929,-0.2934,-0.295,-0.297,-0.3021,-0.3068,-0.3204,-0.333,-0.3515,-0.3639,-0.3804,-0.3958,-0.4005,-0.3976,-0.3844,-0.3902,-0.3918,-0.4047,-0.3932,-0.3845,-0.386,-0.3954,-0.3952,-0.395,-0.3949,-0.3948,-0.2981,-0.2981,-0.3018,-0.3023,-0.3039,-0.3065,-0.309,-0.3181,-0.3229,-0.3403,-0.3435,-0.3555,-0.3661,-0.3741,-0.3782,-0.381,-0.3716,-0.3847,-0.3823,-0.3856,-0.3872,-0.3745,-0.3663,-0.3923,-0.3926,-0.3929,-0.3931,0,-0.3008,-0.3046,-0.306,-0.3113,-0.3127,-0.3134,-0.32,-0.3233,-0.3315,-0.3383,-0.3402,-0.3504,-0.3575,-0.3588,-0.3612,-0.3602,-0.3629,-0.364,-0.3721,-0.374,-0.3819,-0.3829,-0.3793,-0.3708,-0.3705,-0.3707,-0.3709,0,-0.3063,-0.3073,-0.3121,-0.3129,-0.3148,-0.3206,-0.3236,-0.3279,-0.335,-0.3399,-0.3436,-0.3489,-0.3489,-0.3523,-0.3511,-0.3554,-0.3531,-0.3561,-0.357,-0.3634,-0.3645,-0.3685,-0.3698,-0.35,-0.35,-0.3499,-0.3499,0,-0.3079,-0.3127,-0.314,-0.3156,-0.3218,-0.3233,-0.3264,-0.3323,-0.3355,-0.3407,-0.344,-0.3459,-0.3477,-0.3474,-0.3489,-0.3469,-0.3518,-0.3491,-0.3546,-0.355,-0.3635,-0.3647,-0.3717,-0.3499,-0.3499,-0.3499,-0.3499,0,-0.3118,-0.314,-0.3164,-0.3213,-0.3226,-0.3246,-0.3297,-0.3327,-0.3379,-0.3398,-0.3417,-0.3435,-0.345,-0.3433,-0.3451,-0.3441,-0.344,-0.3448,-0.345,-0.3518,-0.3518,-0.3618,-0.3666,-0.3697,-0.3462,-0.3461,-0.3461,0,-0.3122,-0.3153,-0.3181,-0.3208,-0.3228,-0.3263,-0.3292,-0.3324,-0.335,-0.3381,-0.3388,-0.3412,-0.3393,-0.3405,-0.3407,-0.3426,-0.343,-0.3414,-0.3446,-0.3448,-0.3501,-0.3528,-0.3612,-0.3653,-0.3456,-0.3457,-0.3457,0,-0.3124,-0.3173,-0.3174,-0.319,-0.3234,-0.3253,-0.328,-0.3313,-0.3338,-0.3347,-0.3372,-0.3382,-0.3386,-0.3397,-0.3404,-0.3413,-0.3422,-0.3412,-0.3413,-0.3421,-0.3448,-0.3513,-0.3522,-0.3421,-0.3422,-0.3422,-0.3453,0,-0.3149,-0.3167,-0.3177,-0.321,-0.3231,-0.325,-0.3284,-0.33,-0.3309,-0.3326,-0.3347,-0.3359,-0.3378,-0.3382,-0.3387,-0.3404,-0.3408,-0.3407,-0.3409,-0.3414,-0.3427,-0.343,-0.3398,-0.3399,-0.3399,-0.3399,0,0,-0.314,-0.3162,-0.3185,-0.3207,-0.3223,-0.3249,-0.3268,-0.3285,-0.3314,-0.3324,-0.3319,-0.3353,-0.3363,-0.3388,-0.3386,-0.3394,-0.3402,-0.3398,-0.3411,-0.3412,-0.3414,-0.3426,-0.3429,-0.3399,-0.3399,-0.3399,-0.3399,0,-0.3149,-0.3167,-0.3179,-0.3201,-0.3233,-0.3251,-0.3258,-0.3289,-0.3296,-0.3316,-0.3323,-0.3335,-0.3361,-0.3373,-0.3383,-0.3394,-0.3404,-0.3398,-0.3401,-0.3412,-0.3413,-0.3414,-0.3427,-0.3429,-0.34,-0.34,-0.34,0,-0.3153,-0.3175,-0.3181,-0.3218,-0.3234,-0.3257,-0.3264,-0.3284,-0.3298,-0.3309,-0.3324,-0.3333,-0.3352,-0.3368,-0.3377,-0.3379,-0.3407,-0.3399,-0.3399,-0.3404,-0.3415,-0.3417,-0.3418,-0.3404,-0.3404,-0.3404,0,0,-0.316,-0.3172,-0.3209,-0.3223,-0.3236,-0.3259,-0.327,-0.3282,-0.33,-0.3305,-0.3318,-0.3332,-0.3347,-0.3358,-0.3372,-0.3392,-0.3402,-0.3399,-0.3398,-0.3398,-0.3403,-0.3415,-0.3416,-0.3403,-0.3403,-0.3403,0,0,-0.3162,-0.3198,-0.3206,-0.3226,-0.325,-0.3278,-0.3283,-0.3293,-0.3305,-0.3303,-0.3318,-0.3322,-0.3339,-0.3351,-0.3346,-0.3373,-0.3375,-0.3376,-0.3363,-0.3363,-0.3363,-0.3364,-0.3351,0,0,0,0,0,-0.3186,-0.3196,-0.3202,-0.321,-0.3248,-0.3277,-0.3281,-0.3291,-0.329,-0.3294,-0.3305,-0.3311,-0.3349,-0.3344,-0.335,-0.3355,-0.34,-0.34,-0.3401,-0.3389,-0.3388,-0.3388,0,0,0,0,0,0,-0.3189,-0.3198,-0.3202,-0.3232,-0.3241,-0.3276,-0.3274,-0.3277,-0.3289,-0.3289,-0.3309,-0.3312,-0.332,-0.3342,-0.3347,-0.3351,-0.3349,-0.34,-0.3401,-0.3401,-0.3389,-0.3388,-0.3388,0,0,0,0,0,-0.3192,-0.3199,-0.3258,-0.3231,-0.3239,-0.3259,-0.3273,-0.3276,-0.3282,-0.3304,-0.3307,-0.329,-0.332,-0.3325,-0.3345,-0.3349,-0.3345,-0.3347,-0.34,-0.3401,-0.3401,-0.3388,0,0,0,0,0,0,-0.3194,-0.3196,-0.3259,-0.3262,-0.3227,-0.3257,-0.3262,-0.3275,-0.3296,-0.3299,-0.3286,-0.3286,-0.332,-0.3324,-0.3328,-0.3347,-0.3343,-0.3345,-0.3346,-0.3401,-0.3401,-0.3401,0,0,0,0,0,0,-0.3192,-0.3198,-0.326,-0.3255,-0.3257,-0.3255,-0.3259,-0.328,-0.3296,-0.3276,-0.3277,-0.3286,-0.3318,-0.3324,-0.3327,-0.3359,-0.334,-0.3342,-0.3344,-0.3344,-0.3401,-0.3401,0,0,0,0,0,0,-0.3195,-0.32,-0.3254,-0.3255,-0.3257,-0.3286,-0.3273,-0.3312,-0.329,-0.3275,-0.3289,-0.3288,-0.3318,-0.3321,-0.3326,-0.3356,-0.3358,-0.3341,-0.3342,-0.3343,-0.3343,0,0,0,0,0,0,0,-0.3197,-0.3162,-0.3247,-0.3256,-0.3257,-0.3288,-0.3288,-0.3288,-0.329,-0.3289,-0.3289,-0.3289,-0.333,-0.3332,-0.3334,-0.3354,0,0,-0.334,-0.3341,0,0,0,0,0,0,0,0,-0.316,-0.3162,-0.3247,-0.3248,-0.3248,-0.3288,-0.3288,-0.3288,-0.329,-0.3289,-0.3289,-0.3289,-0.3331,-0.3332,-0.3334,0,0,0,0,0,0,0,0,0,0,0,0,0,0,0,-0.3247,-0.3248,0,-0.3288,-0.3288,-0.3288,-0.329,-0.3289,-0.3289,-0.3289,-0.3331,-0.3332,-0.3334,0,0,0,0,0,0,0,0,0,0,0,0,0,0,0,0,0,0,0,0,0,0,0,0,0,0,0,0,0,0,0,0,0,0,0,0,0,0,0,0,0,0,0,0,0,0,0,0,0,0,0,0,0,0,0,0,0,0,0,0,0,0,0,0,0,0,0,0,0]}],[{"header":{"parameterUnit":"kt","parameterCategory":2,"dx":1,"dy":1,"la1":30.253999710083008,"la2":30.299108505249023,"lo1":-89.0895004272461,"lo2":-89.04439544677734,"nx":28,"ny":28,"refTime":"2022-09-26T21:00:00:Z","depth":"0","parameterNumber":3,"parameterNumberName":"V-component_of_CURRENTS"},"data":[-0.1417,-0.1518,-0.158,-0.1792,-0.1892,-0.2096,-0.221,-0.2442,-0.2577,-0.2783,-0.2753,-0.2699,-0.1847,-0.0515,0.0014,0.0024,0.0046,0.012,0.0138,-0.0038,-0.0048,-0.0057,-0.0067,0.0045,0.0045,0.0233,0.0235,0.0237,-0.1397,-0.1467,-0.1555,-0.1676,-0.1797,-0.181,-0.1952,-0.2097,-0.2275,-0.2363,-0.2387,-0.2063,-0.1629,-0.1137,-0.0466,-0.0271,-0.0258,-0.0177,-0.0081,-0.0166,-0.0374,-0.0398,-0.0355,-0.0355,-0.0355,-0.0355,-0.0355,-0.0355,-0.1361,-0.1412,-0.1478,-0.1561,-0.1636,-0.1743,-0.1836,-0.1903,-0.1987,-0.2093,-0.1913,-0.1927,-0.144,-0.0969,-0.0769,-0.039,-0.0352,-0.033,-0.0247,-0.0132,-0.0205,-0.0435,-0.0367,-0.0367,-0.0366,-0.0365,-0.0364,0,-0.1332,-0.1353,-0.1394,-0.1478,-0.153,-0.1591,-0.1631,-0.1672,-0.165,-0.1669,-0.166,-0.1594,-0.1272,-0.1063,-0.0719,-0.0573,-0.0366,-0.0399,-0.0312,-0.0355,-0.0242,-0.0296,-0.0533,-0.0489,-0.0489,-0.0488,-0.0488,-0.0488,-0.1286,-0.1314,-0.1361,-0.14,-0.1408,-0.1439,-0.1475,-0.1442,-0.1472,-0.1409,-0.1432,-0.1276,-0.1216,-0.0922,-0.0691,-0.0475,-0.0392,-0.0401,-0.0419,-0.0351,-0.0257,-0.0143,-0.0212,-0.0485,-0.0486,-0.0486,-0.0486,0,-0.1263,-0.1268,-0.131,-0.1324,-0.133,-0.1357,-0.1366,-0.1391,-0.1335,-0.1348,-0.1326,-0.1201,-0.1061,-0.0889,-0.0718,-0.0615,-0.0434,-0.0428,-0.0525,-0.0512,-0.036,-0.0293,-0.0058,-0.0123,-0.0321,-0.0319,-0.0318,0,-0.1217,-0.1239,-0.1248,-0.1267,-0.1304,-0.1279,-0.1303,-0.1277,-0.1247,-0.1261,-0.1143,-0.1124,-0.0954,-0.0854,-0.0743,-0.0596,-0.0605,-0.0501,-0.0475,-0.0552,-0.0556,-0.0454,-0.0385,-0.0514,-0.0514,-0.0515,-0.0515,0,-0.1176,-0.1192,-0.1222,-0.1225,-0.1226,-0.1229,-0.1221,-0.1186,-0.1184,-0.1117,-0.1105,-0.1006,-0.0958,-0.0858,-0.0729,-0.0734,-0.0599,-0.0593,-0.0504,-0.0502,-0.0522,-0.0523,-0.0447,-0.0516,-0.0516,-0.0517,-0.0517,0,-0.113,-0.1147,-0.1178,-0.1187,-0.1189,-0.1189,-0.1177,-0.1164,-0.1111,-0.1082,-0.1025,-0.0967,-0.0894,-0.0862,-0.0739,-0.0764,-0.0698,-0.0643,-0.0639,-0.0574,-0.0553,-0.0558,-0.0572,-0.0497,-0.0584,-0.0585,-0.0585,0,-0.1096,-0.1127,-0.1112,-0.113,-0.1144,-0.1107,-0.1101,-0.1072,-0.1037,-0.101,-0.0942,-0.0904,-0.0856,-0.0834,-0.0794,-0.0719,-0.0686,-0.0724,-0.0599,-0.0595,-0.0566,-0.0572,-0.065,-0.0584,-0.0596,-0.0595,-0.0594,0,-0.1069,-0.1071,-0.1072,-0.108,-0.1056,-0.1054,-0.104,-0.1013,-0.1008,-0.0954,-0.0937,-0.0873,-0.0838,-0.0804,-0.076,-0.0725,-0.0701,-0.069,-0.0686,-0.0659,-0.0621,-0.059,-0.058,-0.0682,-0.0681,-0.0681,-0.0602,0,-0.1042,-0.1044,-0.105,-0.1043,-0.1032,-0.103,-0.0998,-0.098,-0.0952,-0.092,-0.0879,-0.0822,-0.077,-0.0757,-0.0723,-0.0696,-0.0674,-0.0657,-0.0621,-0.0645,-0.0608,-0.0602,-0.0653,-0.0652,-0.065,-0.0649,0,0,-0.1012,-0.102,-0.0996,-0.1002,-0.0995,-0.0952,-0.0957,-0.093,-0.0882,-0.0867,-0.085,-0.0767,-0.0721,-0.0682,-0.0689,-0.0668,-0.0638,-0.0644,-0.064,-0.0639,-0.0638,-0.0605,-0.06,-0.0647,-0.0647,-0.0647,-0.0646,0,-0.1002,-0.0991,-0.0999,-0.0985,-0.0962,-0.0938,-0.0937,-0.0899,-0.0877,-0.0849,-0.0805,-0.0771,-0.0706,-0.0668,-0.064,-0.0656,-0.0596,-0.0644,-0.0668,-0.0632,-0.0633,-0.0633,-0.0601,-0.0597,-0.0643,-0.0644,-0.0644,0,-0.0981,-0.097,-0.0969,-0.0949,-0.0927,-0.0919,-0.0884,-0.0868,-0.0857,-0.0792,-0.0762,-0.0722,-0.0664,-0.0635,-0.0616,-0.0599,-0.0558,-0.0571,-0.0576,-0.0564,-0.0524,-0.0525,-0.0527,-0.0504,-0.0504,-0.0504,0,0,-0.0973,-0.0974,-0.0945,-0.0944,-0.0936,-0.0896,-0.088,-0.0857,-0.082,-0.0801,-0.0752,-0.0704,-0.0665,-0.0637,-0.0595,-0.0566,-0.0527,-0.0557,-0.0563,-0.0569,-0.056,-0.0522,-0.0524,-0.0503,-0.0503,-0.0503,0,0,-0.0964,-0.0943,-0.0929,-0.093,-0.0904,-0.0861,-0.0853,-0.0828,-0.0788,-0.0783,-0.0719,-0.0702,-0.067,-0.0629,-0.0628,-0.0581,-0.0551,-0.055,-0.0609,-0.0616,-0.0623,-0.0623,-0.0571,0,0,0,0,0,-0.0941,-0.095,-0.0938,-0.0934,-0.0896,-0.0872,-0.0863,-0.0824,-0.0808,-0.0801,-0.0757,-0.0714,-0.062,-0.0617,-0.0601,-0.06,-0.0494,-0.0496,-0.0497,-0.0566,-0.0575,-0.0582,0,0,0,0,0,0,-0.0939,-0.0936,-0.0937,-0.09,-0.089,-0.0871,-0.0841,-0.0829,-0.0808,-0.0802,-0.0726,-0.0712,-0.0666,-0.0621,-0.0607,-0.0608,-0.0576,-0.0495,-0.0496,-0.0497,-0.0569,-0.0576,-0.0582,0,0,0,0,0,-0.0938,-0.0935,-0.0889,-0.0898,-0.089,-0.0841,-0.084,-0.083,-0.0808,-0.0741,-0.0727,-0.078,-0.0668,-0.0652,-0.0613,-0.0616,-0.0584,-0.058,-0.0496,-0.0497,-0.0498,-0.0573,0,0,0,0,0,0,-0.0937,-0.0915,-0.0886,-0.0881,-0.0896,-0.084,-0.0833,-0.0831,-0.0746,-0.0734,-0.0792,-0.0789,-0.0669,-0.0657,-0.0645,-0.0622,-0.0591,-0.0587,-0.0584,-0.0496,-0.0497,-0.0498,0,0,0,0,0,0,-0.0917,-0.0912,-0.0883,-0.0882,-0.0877,-0.084,-0.0833,-0.0786,-0.0744,-0.0801,-0.0796,-0.0792,-0.0678,-0.066,-0.0651,-0.0579,-0.0597,-0.0592,-0.0589,-0.0587,-0.0497,-0.0498,0,0,0,0,0,0,-0.0914,-0.0909,-0.0883,-0.0879,-0.0874,-0.0814,-0.0795,-0.0751,-0.0767,-0.0804,-0.0766,-0.0765,-0.0682,-0.0672,-0.0655,-0.0588,-0.0581,-0.0597,-0.0594,-0.0591,-0.059,0,0,0,0,0,0,0,-0.0911,-0.0956,-0.0919,-0.0876,-0.0872,-0.0837,-0.0835,-0.0833,-0.0767,-0.0766,-0.0766,-0.0765,-0.0623,-0.0618,-0.0613,-0.0594,0,0,-0.0597,-0.0595,0,0,0,0,0,0,0,0,-0.0956,-0.0956,-0.0918,-0.0918,-0.0917,-0.0837,-0.0835,-0.0834,-0.0767,-0.0766,-0.0766,-0.0765,-0.0622,-0.0618,-0.0614,0,0,0,0,0,0,0,0,0,0,0,0,0,0,0,-0.0918,-0.0918,0,-0.0836,-0.0835,-0.0834,-0.0767,-0.0767,-0.0766,-0.0766,-0.0621,-0.0617,-0.0614,0,0,0,0,0,0,0,0,0,0,0,0,0,0,0,0,0,0,0,0,0,0,0,0,0,0,0,0,0,0,0,0,0,0,0,0,0,0,0,0,0,0,0,0,0,0,0,0,0,0,0,0,0,0,0,0,0,0,0,0,0,0,0,0,0,0,0,0,0]}]],[[{"header":{"parameterUnit":"kt","parameterCategory":2,"dx":1,"dy":1,"la1":30.253999710083008,"la2":30.299108505249023,"lo1":-89.0895004272461,"lo2":-89.04439544677734,"nx":28,"ny":28,"refTime":"2022-09-26T21:00:00:Z","depth":"2","parameterNumber":2,"parameterNumberName":"U-component_of_CURRENTS"},"data":[-0.2607,-0.2545,-0.2539,-0.2465,-0.2482,-0.2408,-0.2433,-0.2455,-0.2568,-0.2677,-0.2832,-0.3089,-0.3132,-0.2718,-0.2532,-0.2355,-0.2383,-0.2241,-0.3025,-0.2801,-0.2827,-0.2819,-0.2743,0,0,0,0,0,-0.2668,-0.2671,-0.2668,-0.266,-0.2627,-0.2689,-0.2759,-0.2736,-0.2836,-0.3077,-0.3231,-0.3059,-0.3053,-0.3035,-0.2807,-0.2767,-0.2604,-0.2654,-0.2425,-0.246,-0.2489,-0.2409,-0.2162,-0.2159,-0.2156,-0.2153,0,0,-0.279,-0.2769,-0.2775,-0.2773,-0.2794,-0.2814,-0.2819,-0.2917,-0.3021,-0.3179,-0.3372,-0.35,-0.3457,-0.3415,-0.3257,-0.3125,-0.3341,-0.3192,-0.3193,-0.3199,-0.3166,-0.3148,-0.3115,-0.3118,-0.3122,-0.3124,-0.3127,0,-0.2859,-0.2868,-0.2876,-0.2882,-0.2898,-0.2918,-0.297,-0.3016,-0.3152,-0.3264,-0.3447,-0.3557,-0.3636,-0.3555,-0.3566,-0.3504,-0.3385,-0.3352,-0.3673,-0.3036,-0.3007,-0.3004,-0.3015,-0.2955,-0.2958,-0.296,-0.2962,-0.2963,-0.2927,-0.2927,-0.2964,-0.297,-0.2987,-0.3014,-0.3038,-0.313,-0.3177,-0.335,-0.3381,-0.3501,-0.3593,-0.3673,-0.3622,-0.3624,-0.366,-0.3405,-0.333,-0.3605,-0.3606,-0.36,-0.3594,-0.2994,-0.299,-0.2987,-0.2984,0,-0.2954,-0.2992,-0.3005,-0.3059,-0.3073,-0.3081,-0.3148,-0.3181,-0.3263,-0.333,-0.335,-0.3451,-0.3521,-0.3535,-0.3559,-0.3548,-0.3571,-0.3586,-0.3296,-0.3273,-0.3583,-0.358,-0.3645,-0.3648,-0.365,-0.3652,-0.3654,0,-0.3008,-0.3019,-0.3067,-0.3075,-0.3094,-0.3152,-0.3183,-0.3226,-0.3296,-0.3345,-0.3383,-0.3435,-0.3436,-0.347,-0.3458,-0.3501,-0.3479,-0.3507,-0.3515,-0.3256,-0.324,-0.3433,-0.3431,-0.3447,-0.3447,-0.3446,-0.3446,0,-0.3025,-0.3072,-0.3085,-0.3101,-0.3162,-0.3178,-0.3209,-0.3269,-0.33,-0.3353,-0.3386,-0.3405,-0.3424,-0.3421,-0.3436,-0.3416,-0.3465,-0.3438,-0.3492,-0.3496,-0.3264,-0.3249,-0.3446,-0.3446,-0.3446,-0.3446,-0.3446,0,-0.3063,-0.3085,-0.3108,-0.3158,-0.317,-0.3191,-0.3242,-0.3271,-0.3323,-0.3343,-0.3362,-0.3381,-0.3396,-0.3378,-0.3397,-0.3387,-0.3387,-0.3394,-0.3396,-0.3462,-0.3461,-0.3224,-0.3193,-0.3408,-0.3408,-0.3407,-0.3407,0,-0.3067,-0.3098,-0.3125,-0.3152,-0.3172,-0.3207,-0.3236,-0.3268,-0.3294,-0.3325,-0.3332,-0.3357,-0.3338,-0.335,-0.3352,-0.3371,-0.3375,-0.3359,-0.3391,-0.3392,-0.3444,-0.3472,-0.3185,-0.3195,-0.3402,-0.3402,-0.3403,0,-0.307,-0.3117,-0.3119,-0.3135,-0.3178,-0.3196,-0.3224,-0.3257,-0.3282,-0.3291,-0.3317,-0.3326,-0.333,-0.3341,-0.3348,-0.3357,-0.3367,-0.3356,-0.3357,-0.3366,-0.3394,-0.3457,-0.3466,-0.3366,-0.3366,-0.3367,-0.3399,0,-0.3093,-0.3112,-0.3121,-0.3154,-0.3175,-0.3194,-0.3227,-0.3243,-0.3253,-0.327,-0.3291,-0.3302,-0.3321,-0.3325,-0.3329,-0.3347,-0.3351,-0.3349,-0.3351,-0.3357,-0.337,-0.3373,-0.334,-0.334,-0.334,-0.334,0,0,-0.3085,-0.3107,-0.3129,-0.315,-0.3166,-0.3192,-0.3211,-0.3227,-0.3256,-0.3266,-0.3261,-0.3295,-0.3305,-0.3329,-0.3328,-0.3335,-0.3343,-0.334,-0.3353,-0.3355,-0.3356,-0.3369,-0.3372,-0.334,-0.334,-0.334,-0.334,0,-0.3094,-0.3111,-0.3123,-0.3144,-0.3176,-0.3193,-0.3201,-0.3231,-0.3238,-0.3258,-0.3265,-0.3277,-0.3302,-0.3313,-0.3323,-0.3335,-0.3345,-0.3339,-0.3343,-0.3354,-0.3355,-0.3356,-0.3369,-0.3371,-0.3341,-0.3341,-0.3341,0,-0.3097,-0.3118,-0.3124,-0.316,-0.3176,-0.3198,-0.3205,-0.3226,-0.324,-0.3249,-0.3264,-0.3274,-0.3292,-0.3308,-0.3317,-0.3318,-0.3347,-0.3338,-0.3338,-0.3344,-0.3355,-0.3356,-0.3357,-0.3342,-0.3342,-0.3342,0,0,-0.3103,-0.3116,-0.3152,-0.3165,-0.3178,-0.32,-0.3211,-0.3223,-0.3241,-0.3245,-0.3258,-0.3272,-0.3287,-0.3297,-0.3311,-0.3331,-0.334,-0.3338,-0.3338,-0.3338,-0.3343,-0.3354,-0.3355,-0.3341,-0.3341,-0.3341,0,0,-0.3105,-0.314,-0.3148,-0.3168,-0.3191,-0.3218,-0.3223,-0.3233,-0.3245,-0.3243,-0.3257,-0.3262,-0.3279,-0.3291,-0.3285,-0.3312,-0.3313,-0.3315,-0.3302,-0.3303,-0.3303,-0.3304,-0.3289,0,0,0,0,0,-0.3128,-0.3138,-0.3145,-0.3152,-0.3189,-0.3217,-0.322,-0.3231,-0.323,-0.3235,-0.3245,-0.3251,-0.3287,-0.3282,-0.3288,-0.3294,-0.3337,-0.3338,-0.3339,-0.3328,-0.3328,-0.3328,0,0,0,0,0,0,-0.3131,-0.314,-0.3144,-0.3173,-0.3181,-0.3216,-0.3214,-0.3216,-0.3229,-0.3229,-0.3248,-0.3251,-0.3259,-0.328,-0.3285,-0.3291,-0.3287,-0.3338,-0.3338,-0.3339,-0.3328,-0.3328,-0.3328,0,0,0,0,0,-0.3134,-0.3141,-0.3198,-0.3172,-0.318,-0.3199,-0.3213,-0.3215,-0.3222,-0.3243,-0.3246,-0.323,-0.3259,-0.3264,-0.3284,-0.3288,-0.3284,-0.3286,-0.3338,-0.3338,-0.3339,-0.3328,0,0,0,0,0,0,-0.3136,-0.3137,-0.3199,-0.3202,-0.3169,-0.3197,-0.3202,-0.3214,-0.3235,-0.3238,-0.3226,-0.3225,-0.3259,-0.3263,-0.3267,-0.3286,-0.3281,-0.3283,-0.3284,-0.3338,-0.3339,-0.3339,0,0,0,0,0,0,-0.3134,-0.3139,-0.3201,-0.3195,-0.3197,-0.3195,-0.3199,-0.322,-0.3235,-0.3216,-0.3216,-0.3225,-0.3258,-0.3262,-0.3265,-0.3296,-0.3279,-0.3281,-0.3282,-0.3283,-0.3339,-0.3339,0,0,0,0,0,0,-0.3136,-0.3141,-0.3194,-0.3196,-0.3198,-0.3225,-0.3213,-0.325,-0.3229,-0.3214,-0.3228,-0.3228,-0.3257,-0.326,-0.3264,-0.3294,-0.3296,-0.3279,-0.328,-0.3281,-0.3282,0,0,0,0,0,0,0,-0.3138,-0.3105,-0.3188,-0.3196,-0.3198,-0.3227,-0.3227,-0.3228,-0.3229,-0.3229,-0.3228,-0.3228,-0.3269,-0.3271,-0.3273,-0.3292,0,0,-0.3279,-0.328,0,0,0,0,0,0,0,0,-0.3103,-0.3104,-0.3188,-0.3188,-0.3189,-0.3227,-0.3227,-0.3227,-0.3229,-0.3229,-0.3228,-0.3228,-0.327,-0.3271,-0.3273,0,0,0,0,0,0,0,0,0,0,0,0,0,0,0,-0.3188,-0.3188,0,-0.3227,-0.3227,-0.3227,-0.3229,-0.3229,-0.3228,-0.3228,-0.327,-0.3271,-0.3273,0,0,0,0,0,0,0,0,0,0,0,0,0,0,0,0,0,0,0,0,0,0,0,0,0,0,0,0,0,0,0,0,0,0,0,0,0,0,0,0,0,0,0,0,0,0,0,0,0,0,0,0,0,0,0,0,0,0,0,0,0,0,0,0,0,0,0,0,0]}],[{"header":{"parameterUnit":"kt","parameterCategory":2,"dx":1,"dy":1,"la1":30.253999710083008,"la2":30.299108505249023,"lo1":-89.0895004272461,"lo2":-89.04439544677734,"nx":28,"ny":28,"refTime":"2022-09-26T21:00:00:Z","depth":"2","parameterNumber":3,"parameterNumberName":"V-component_of_CURRENTS"},"data":[-0.1307,-0.1398,-0.1459,-0.1653,-0.177,-0.1915,-0.2025,-0.2081,-0.2063,-0.2053,-0.1959,-0.1647,-0.1099,-0.0631,-0.0128,0.018,0.0135,0.0217,-0.0073,-0.0146,-0.0169,0.0128,0.0121,0,0,0,0,0,-0.1292,-0.1381,-0.1469,-0.1588,-0.1682,-0.1722,-0.1861,-0.1907,-0.1998,-0.1942,-0.1884,-0.1473,-0.1002,-0.0586,-0.0007,0.0297,0.0325,0.0327,0.0328,0.0307,0.0288,0.0299,0.0497,0.0498,0.0499,0.05,0,0,-0.1274,-0.1326,-0.1391,-0.1474,-0.1549,-0.1654,-0.1746,-0.1759,-0.1823,-0.1822,-0.1716,-0.1585,-0.1139,-0.0621,-0.0269,0.0061,-0.0018,0.0057,0.0049,0.0039,0.0038,0.0032,0.0166,0.0165,0.0164,0.0163,0.0162,0,-0.1244,-0.1265,-0.1306,-0.139,-0.1442,-0.1502,-0.1543,-0.1583,-0.156,-0.1567,-0.1555,-0.1481,-0.1112,-0.0779,-0.0415,-0.0269,-0.016,-0.0086,-0.0263,-0.0075,-0.0082,-0.0068,-0.0083,0.003,0.0027,0.0026,0.0025,0.0024,-0.1196,-0.1225,-0.1272,-0.1311,-0.1319,-0.1351,-0.1387,-0.1354,-0.1382,-0.132,-0.1342,-0.1188,-0.1117,-0.0824,-0.0537,-0.0306,-0.0359,-0.0137,-0.013,-0.0308,-0.0292,-0.03,-0.0308,0.0002,0.0004,0.0007,0.0009,0,-0.1172,-0.1177,-0.122,-0.1234,-0.124,-0.1268,-0.1277,-0.1301,-0.1246,-0.1259,-0.1237,-0.1111,-0.0972,-0.08,-0.0629,-0.0525,-0.0387,-0.0338,-0.0266,-0.0234,-0.0313,-0.0319,-0.0235,-0.0233,-0.0232,-0.0231,-0.023,0,-0.1124,-0.1147,-0.1155,-0.1175,-0.1213,-0.1188,-0.1212,-0.1186,-0.1155,-0.1169,-0.1052,-0.1032,-0.0862,-0.0762,-0.0651,-0.0504,-0.0513,-0.0408,-0.0382,-0.0311,-0.0303,-0.042,-0.0421,-0.042,-0.0421,-0.0422,-0.0422,0,-0.1081,-0.1097,-0.1129,-0.1132,-0.1132,-0.1136,-0.1127,-0.1092,-0.1089,-0.1023,-0.1012,-0.0913,-0.0865,-0.0765,-0.0636,-0.064,-0.0506,-0.0499,-0.0411,-0.0408,-0.0284,-0.0272,-0.0423,-0.0423,-0.0423,-0.0423,-0.0424,0,-0.1033,-0.105,-0.1083,-0.1091,-0.1093,-0.1093,-0.1082,-0.1068,-0.1015,-0.0986,-0.093,-0.0871,-0.0799,-0.0766,-0.0643,-0.0668,-0.0603,-0.0547,-0.0542,-0.0478,-0.0455,-0.0309,-0.0288,-0.0487,-0.0488,-0.0489,-0.049,0,-0.0997,-0.1029,-0.1013,-0.1033,-0.1046,-0.1009,-0.1003,-0.0974,-0.0939,-0.0912,-0.0843,-0.0805,-0.0757,-0.0735,-0.0696,-0.062,-0.0588,-0.0625,-0.0501,-0.0497,-0.0468,-0.0476,-0.0384,-0.0307,-0.05,-0.0498,-0.0498,0,-0.0968,-0.097,-0.0971,-0.0979,-0.0955,-0.0953,-0.0939,-0.0913,-0.0908,-0.0855,-0.0838,-0.0773,-0.0738,-0.0704,-0.0659,-0.0624,-0.0603,-0.059,-0.0586,-0.056,-0.0524,-0.0493,-0.0484,-0.0583,-0.0582,-0.0582,-0.0506,0,-0.0938,-0.0941,-0.0947,-0.0941,-0.0929,-0.0929,-0.0896,-0.0879,-0.0851,-0.0818,-0.0778,-0.072,-0.0668,-0.0655,-0.062,-0.0594,-0.0573,-0.0554,-0.0518,-0.0543,-0.0507,-0.0501,-0.0549,-0.0547,-0.0546,-0.0545,0,0,-0.0907,-0.0915,-0.0891,-0.0897,-0.0891,-0.0847,-0.0853,-0.0825,-0.0779,-0.0764,-0.0747,-0.0663,-0.0617,-0.0578,-0.0585,-0.0564,-0.0534,-0.0541,-0.0537,-0.0537,-0.0536,-0.0503,-0.0499,-0.0543,-0.0543,-0.0542,-0.0542,0,-0.0896,-0.0884,-0.0894,-0.088,-0.0857,-0.0832,-0.0832,-0.0794,-0.0772,-0.0745,-0.0701,-0.0667,-0.0601,-0.0563,-0.0535,-0.0551,-0.0492,-0.0539,-0.0565,-0.0529,-0.053,-0.0531,-0.0499,-0.0496,-0.0539,-0.0539,-0.0539,0,-0.0873,-0.0862,-0.0861,-0.0841,-0.0819,-0.0812,-0.0776,-0.0762,-0.0751,-0.0685,-0.0657,-0.0616,-0.0557,-0.0528,-0.051,-0.0492,-0.0453,-0.0465,-0.047,-0.0458,-0.0418,-0.042,-0.0422,-0.0397,-0.0397,-0.0396,0,0,-0.0864,-0.0865,-0.0836,-0.0836,-0.0828,-0.0788,-0.0772,-0.0749,-0.0713,-0.0694,-0.0645,-0.0597,-0.0558,-0.053,-0.0488,-0.0459,-0.0421,-0.045,-0.0457,-0.0463,-0.0454,-0.0416,-0.0418,-0.0396,-0.0396,-0.0396,0,0,-0.0855,-0.0833,-0.0819,-0.0821,-0.0795,-0.0752,-0.0745,-0.072,-0.0681,-0.0677,-0.0612,-0.0595,-0.0563,-0.0522,-0.0521,-0.0474,-0.0444,-0.0442,-0.0503,-0.0511,-0.0517,-0.0518,-0.0464,0,0,0,0,0,-0.083,-0.084,-0.0828,-0.0824,-0.0786,-0.0762,-0.0753,-0.0715,-0.07,-0.0693,-0.065,-0.0607,-0.0513,-0.051,-0.0494,-0.0494,-0.0386,-0.0388,-0.0389,-0.0461,-0.0469,-0.0476,0,0,0,0,0,0,-0.0828,-0.0825,-0.0827,-0.0789,-0.078,-0.0761,-0.0731,-0.072,-0.07,-0.0694,-0.0619,-0.0605,-0.0558,-0.0514,-0.05,-0.0501,-0.0468,-0.0387,-0.0388,-0.039,-0.0464,-0.0471,-0.0477,0,0,0,0,0,-0.0827,-0.0824,-0.0779,-0.0788,-0.078,-0.0732,-0.073,-0.0721,-0.07,-0.0632,-0.0618,-0.0673,-0.056,-0.0545,-0.0505,-0.0509,-0.0477,-0.0472,-0.0388,-0.0389,-0.039,-0.0467,0,0,0,0,0,0,-0.0826,-0.0805,-0.0775,-0.077,-0.0786,-0.0731,-0.0723,-0.0722,-0.0637,-0.0625,-0.0684,-0.0681,-0.0561,-0.0549,-0.0537,-0.0516,-0.0484,-0.0479,-0.0476,-0.0389,-0.039,-0.039,0,0,0,0,0,0,-0.0806,-0.0801,-0.0773,-0.0773,-0.0767,-0.073,-0.0724,-0.0676,-0.0635,-0.0692,-0.0688,-0.0683,-0.0571,-0.0552,-0.0543,-0.047,-0.049,-0.0485,-0.0482,-0.048,-0.0389,-0.039,0,0,0,0,0,0,-0.0803,-0.0798,-0.0773,-0.0769,-0.0765,-0.0704,-0.0685,-0.0641,-0.0659,-0.0695,-0.0658,-0.0657,-0.0574,-0.0564,-0.0547,-0.0479,-0.0472,-0.0489,-0.0486,-0.0484,-0.0483,0,0,0,0,0,0,0,-0.08,-0.0845,-0.0808,-0.0767,-0.0762,-0.0727,-0.0725,-0.0723,-0.0659,-0.0658,-0.0658,-0.0657,-0.0516,-0.0511,-0.0506,-0.0485,0,0,-0.049,-0.0488,0,0,0,0,0,0,0,0,-0.0845,-0.0845,-0.0808,-0.0807,-0.0806,-0.0726,-0.0725,-0.0723,-0.0659,-0.0658,-0.0658,-0.0657,-0.0515,-0.0511,-0.0506,0,0,0,0,0,0,0,0,0,0,0,0,0,0,0,-0.0808,-0.0807,0,-0.0726,-0.0725,-0.0724,-0.0659,-0.0658,-0.0658,-0.0658,-0.0514,-0.051,-0.0507,0,0,0,0,0,0,0,0,0,0,0,0,0,0,0,0,0,0,0,0,0,0,0,0,0,0,0,0,0,0,0,0,0,0,0,0,0,0,0,0,0,0,0,0,0,0,0,0,0,0,0,0,0,0,0,0,0,0,0,0,0,0,0,0,0,0,0,0,0]}]],[[{"header":{"parameterUnit":"kt","parameterCategory":2,"dx":1,"dy":1,"la1":30.253999710083008,"la2":30.299108505249023,"lo1":-89.0895004272461,"lo2":-89.04439544677734,"nx":28,"ny":28,"refTime":"2022-09-26T21:00:00:Z","depth":"4","parameterNumber":2,"parameterNumberName":"U-component_of_CURRENTS"},"data":[-0.1562,-0.1598,-0.1614,-0.1612,-0.1635,-0.171,-0.1784,-0.1895,-0.1907,-0.2081,-0.211,-0.2239,-0.2298,-0.24,-0.2363,-0.2381,-0.2323,-0.2561,-0.2556,-0.2535,-0.2546,-0.2555,-0.2503,0,0,0,0,0,-0.1618,-0.1618,-0.1665,-0.1725,-0.1814,-0.1862,-0.1989,-0.2065,-0.2225,-0.2218,-0.2308,-0.2362,-0.2396,-0.2465,-0.2405,-0.2558,-0.2554,-0.2478,-0.245,-0.2542,-0.2554,-0.2499,0,0,0,0,0,0,-0.1703,-0.1712,-0.1791,-0.1847,-0.1937,-0.1975,-0.2043,-0.2118,-0.2188,-0.2384,-0.2407,-0.2532,-0.2645,-0.2618,-0.2624,-0.2595,-0.2555,-0.246,-0.2476,-0.2487,-0.243,-0.2384,-0.2295,0,0,0,0,0,-0.1773,-0.1836,-0.1887,-0.1969,-0.2039,-0.2106,-0.2203,-0.223,-0.2385,-0.251,-0.257,-0.2602,-0.2659,-0.2673,-0.2675,-0.2655,-0.2709,-0.2675,-0.2679,-0.2626,-0.2606,-0.2596,-0.2599,-0.2598,-0.2599,-0.26,-0.2601,0,-0.187,-0.1891,-0.2026,-0.2067,-0.2126,-0.2214,-0.2271,-0.2404,-0.2457,-0.2627,-0.2644,-0.2747,-0.28,-0.2743,-0.2794,-0.2769,-0.2745,-0.2706,-0.2649,-0.2625,-0.2611,-0.2612,-0.2612,-0.261,-0.2609,-0.2609,-0.2608,0,-0.1916,-0.1997,-0.2056,-0.2179,-0.2222,-0.2266,-0.2397,-0.2447,-0.2559,-0.2633,-0.2663,-0.2769,-0.2813,-0.2843,-0.2869,-0.2792,-0.2774,-0.2746,-0.2848,-0.2838,-0.2631,-0.2627,-0.2626,-0.2622,-0.2619,-0.2617,-0.2615,0,-0.2003,-0.2047,-0.2164,-0.2186,-0.2252,-0.2338,-0.2416,-0.2485,-0.2583,-0.2638,-0.2712,-0.2756,-0.2795,-0.2825,-0.2816,-0.2774,-0.2838,-0.2712,-0.2696,-0.2781,-0.2777,-0.2777,-0.2771,-0.2818,-0.2818,-0.2818,-0.2818,0,-0.2042,-0.2133,-0.2179,-0.2208,-0.2312,-0.2359,-0.2419,-0.2512,-0.2561,-0.2654,-0.2697,-0.2744,-0.2775,-0.2783,-0.2793,-0.2779,-0.2824,-0.2798,-0.2704,-0.2697,-0.2773,-0.2769,-0.2818,-0.2818,-0.2818,-0.2818,-0.2817,0,-0.2101,-0.2142,-0.2198,-0.2287,-0.2308,-0.2355,-0.2447,-0.2499,-0.2583,-0.2624,-0.267,-0.2698,-0.2737,-0.2721,-0.2752,-0.2742,-0.2741,-0.2745,-0.2745,-0.2646,-0.2613,-0.2688,-0.2738,-0.2737,-0.2736,-0.2736,-0.2735,0,-0.2111,-0.2164,-0.2206,-0.2268,-0.2297,-0.2357,-0.241,-0.2467,-0.2519,-0.2579,-0.2604,-0.2655,-0.2644,-0.267,-0.2683,-0.2699,-0.2712,-0.2691,-0.2707,-0.2707,-0.2604,-0.2626,-0.27,-0.2727,-0.2728,-0.2729,-0.2729,0,-0.2105,-0.2184,-0.2194,-0.2226,-0.2291,-0.2315,-0.2376,-0.2429,-0.2476,-0.2521,-0.2572,-0.2611,-0.2625,-0.2641,-0.265,-0.2667,-0.2697,-0.2661,-0.2661,-0.2661,-0.2731,-0.2628,-0.2623,-0.2695,-0.2696,-0.2697,-0.2723,0,-0.2128,-0.2169,-0.2187,-0.2235,-0.2268,-0.2301,-0.2344,-0.2388,-0.2427,-0.2453,-0.2514,-0.2535,-0.2575,-0.2589,-0.259,-0.2634,-0.263,-0.2619,-0.2602,-0.2636,-0.2642,-0.2647,-0.2584,-0.2583,-0.2583,-0.2582,0,0,-0.211,-0.2143,-0.2173,-0.2201,-0.2228,-0.2265,-0.2294,-0.2326,-0.2378,-0.2403,-0.2413,-0.2485,-0.2504,-0.2546,-0.2561,-0.2569,-0.2577,-0.2577,-0.262,-0.2625,-0.2629,-0.2637,-0.2642,-0.2582,-0.2582,-0.2582,-0.2581,0,-0.21,-0.2138,-0.2162,-0.2188,-0.2231,-0.2248,-0.2267,-0.2306,-0.2335,-0.2384,-0.2398,-0.2435,-0.2486,-0.2501,-0.2514,-0.256,-0.2561,-0.2576,-0.2603,-0.2617,-0.2621,-0.2625,-0.2634,-0.2639,-0.2581,-0.2581,-0.2581,0,-0.2087,-0.211,-0.2129,-0.2169,-0.2194,-0.2222,-0.2229,-0.2268,-0.2299,-0.2308,-0.237,-0.2389,-0.2411,-0.2454,-0.2479,-0.2472,-0.2541,-0.2526,-0.2528,-0.2534,-0.2548,-0.2553,-0.2558,-0.2491,-0.249,-0.249,0,0,-0.2079,-0.2108,-0.2137,-0.2168,-0.2185,-0.2214,-0.2234,-0.2254,-0.2284,-0.2304,-0.2336,-0.237,-0.2397,-0.2422,-0.2447,-0.2488,-0.249,-0.2514,-0.2518,-0.2522,-0.2529,-0.2544,-0.255,-0.2489,-0.2489,-0.2489,0,0,-0.207,-0.2106,-0.2124,-0.2158,-0.2185,-0.2204,-0.223,-0.2249,-0.2288,-0.2303,-0.2321,-0.2331,-0.2385,-0.2396,-0.2376,-0.2449,-0.2432,-0.2437,-0.2441,-0.2446,-0.245,-0.2451,-0.2372,0,0,0,0,0,-0.2076,-0.2098,-0.2114,-0.2124,-0.2169,-0.2195,-0.2201,-0.2231,-0.2249,-0.2269,-0.23,-0.2307,-0.2388,-0.237,-0.2378,-0.2408,-0.2472,-0.2475,-0.2478,-0.2493,-0.2498,-0.2503,0,0,0,0,0,0,-0.2079,-0.209,-0.2113,-0.2131,-0.2142,-0.2193,-0.2198,-0.2206,-0.2248,-0.2253,-0.2299,-0.2306,-0.2313,-0.2367,-0.2374,-0.2402,-0.237,-0.2473,-0.2475,-0.2478,-0.2494,-0.2499,-0.2503,0,0,0,0,0,-0.2082,-0.2091,-0.216,-0.2131,-0.2141,-0.2182,-0.2198,-0.2205,-0.2244,-0.2265,-0.2275,-0.2271,-0.2311,-0.2321,-0.2371,-0.2399,-0.2365,-0.2368,-0.2475,-0.2477,-0.2478,-0.2497,0,0,0,0,0,0,-0.2085,-0.2091,-0.2163,-0.2167,-0.2138,-0.2181,-0.219,-0.2205,-0.2256,-0.2265,-0.2236,-0.2238,-0.231,-0.2318,-0.2325,-0.2397,-0.2361,-0.2364,-0.2365,-0.2476,-0.2478,-0.2479,0,0,0,0,0,0,-0.2087,-0.2094,-0.2165,-0.2172,-0.2177,-0.218,-0.2188,-0.2212,-0.2257,-0.2223,-0.2227,-0.2236,-0.231,-0.2316,-0.2321,-0.2357,-0.2358,-0.2361,-0.2362,-0.2364,-0.2477,-0.2479,0,0,0,0,0,0,-0.209,-0.2096,-0.2171,-0.2175,-0.2179,-0.2221,-0.2203,-0.2254,-0.2248,-0.222,-0.2251,-0.2252,-0.2308,-0.2313,-0.2319,-0.2352,-0.2356,-0.2358,-0.236,-0.2361,-0.2362,0,0,0,0,0,0,0,-0.2093,-0.2048,-0.2144,-0.2177,-0.218,-0.2202,-0.2202,-0.2203,-0.2248,-0.2249,-0.225,-0.2251,-0.2344,-0.2346,-0.2349,-0.2347,0,0,-0.2358,-0.2359,0,0,0,0,0,0,0,0,-0.2046,-0.2048,-0.2144,-0.2145,-0.2146,-0.2202,-0.2202,-0.2203,-0.2249,-0.2249,-0.225,-0.2251,-0.2344,-0.2347,-0.2349,0,0,0,0,0,0,0,0,0,0,0,0,0,0,0,-0.2144,-0.2145,0,-0.2202,-0.2202,-0.2203,-0.2249,-0.2249,-0.225,-0.2251,-0.2345,-0.2347,-0.2349,0,0,0,0,0,0,0,0,0,0,0,0,0,0,0,0,0,0,0,0,0,0,0,0,0,0,0,0,0,0,0,0,0,0,0,0,0,0,0,0,0,0,0,0,0,0,0,0,0,0,0,0,0,0,0,0,0,0,0,0,0,0,0,0,0,0,0,0,0]}],[{"header":{"parameterUnit":"kt","parameterCategory":2,"dx":1,"dy":1,"la1":30.253999710083008,"la2":30.299108505249023,"lo1":-89.0895004272461,"lo2":-89.04439544677734,"nx":28,"ny":28,"refTime":"2022-09-26T21:00:00:Z","depth":"4","parameterNumber":3,"parameterNumberName":"V-component_of_CURRENTS"},"data":[-0.0482,-0.0571,-0.0633,-0.0773,-0.0861,-0.098,-0.1038,-0.1056,-0.1033,-0.1014,-0.0874,-0.0785,-0.0522,-0.0678,-0.0255,-0.0197,-0.0126,0.0172,0.0177,0.0261,0.0255,0.0249,0.0227,0,0,0,0,0,-0.0473,-0.0541,-0.0636,-0.0754,-0.0857,-0.0918,-0.0997,-0.1021,-0.1034,-0.1014,-0.0975,-0.0839,-0.0563,-0.0434,-0.0258,-0.0177,0.0037,0.004,0.0106,0.0257,0.025,0.0231,0,0,0,0,0,0,-0.0468,-0.0522,-0.0607,-0.07,-0.0802,-0.0896,-0.0931,-0.0965,-0.0986,-0.0957,-0.0937,-0.077,-0.0667,-0.0388,-0.0216,-0.0041,0.0001,0.0059,0.0063,0.0059,0.0016,-0.0023,0.0003,0,0,0,0,0,-0.0456,-0.0495,-0.0555,-0.0666,-0.0739,-0.0822,-0.0884,-0.0913,-0.0923,-0.0909,-0.0859,-0.0714,-0.0572,-0.0359,-0.0171,-0.0008,0.0118,0.0178,0.0176,0.0176,0.0163,0.0183,0.0176,0.0225,0.0224,0.0223,0.0223,0,-0.0427,-0.047,-0.0569,-0.0622,-0.0653,-0.0718,-0.0767,-0.0775,-0.0805,-0.0784,-0.0797,-0.0684,-0.0602,-0.0355,-0.0177,0.005,0.0087,0.016,0.016,0.0151,0.0175,0.0169,0.0164,0.0218,0.0218,0.0219,0.0219,0,-0.0408,-0.0447,-0.0522,-0.0584,-0.0606,-0.0651,-0.07,-0.0734,-0.0712,-0.0733,-0.0721,-0.0624,-0.0501,-0.0348,-0.0189,-0.0082,0.0053,0.0107,0.0016,0.004,0.0156,0.0153,0.0209,0.0211,0.0213,0.0214,0.0215,0,-0.0382,-0.0429,-0.0484,-0.0517,-0.0585,-0.0585,-0.0635,-0.0628,-0.0621,-0.064,-0.0552,-0.0537,-0.0391,-0.0302,-0.0188,-0.0045,-0.0065,0.0059,0.0089,0.0016,0.0014,0.0056,0.0058,0.0032,0.0032,0.0032,0.0031,0,-0.0334,-0.0397,-0.0457,-0.0472,-0.051,-0.0532,-0.0543,-0.0529,-0.0538,-0.05,-0.0498,-0.0419,-0.0383,-0.029,-0.016,-0.0159,-0.0048,-0.003,0.0068,0.0071,0.0054,0.0057,0.0031,0.0031,0.003,0.003,0.003,0,-0.0296,-0.0335,-0.0402,-0.0446,-0.0456,-0.0476,-0.0491,-0.0496,-0.0464,-0.0444,-0.0403,-0.0348,-0.0295,-0.025,-0.0148,-0.0165,-0.01,-0.0045,-0.0041,0.0032,0.0072,0.0057,0.0017,0.0017,0.0016,0.0016,0.0016,0,-0.0247,-0.0312,-0.031,-0.0363,-0.0393,-0.0368,-0.0382,-0.037,-0.0347,-0.034,-0.0278,-0.0257,-0.0204,-0.0189,-0.0157,-0.0087,-0.0064,-0.0086,0.0021,0.0024,0.0064,0.0041,-0.0047,0.001,0.0011,0.0011,0.0012,0,-0.02,-0.0235,-0.024,-0.0264,-0.0262,-0.0272,-0.0281,-0.0277,-0.0286,-0.025,-0.0254,-0.0206,-0.017,-0.0145,-0.0102,-0.0076,-0.0069,-0.0038,-0.0035,-0.0016,-0.0013,0.0029,0.0037,-0.0047,-0.0047,-0.0047,0.0008,0,-0.0167,-0.0189,-0.0203,-0.0218,-0.0218,-0.0235,-0.0214,-0.0212,-0.0194,-0.0172,-0.0155,-0.0105,-0.0073,-0.0062,-0.003,-0.0025,-0.0004,0.0021,0.0056,0.0021,0.005,0.0053,0.0045,0.0046,0.0047,0.0048,0,0,-0.0115,-0.0143,-0.0122,-0.0143,-0.0148,-0.0111,-0.0136,-0.0121,-0.0099,-0.0093,-0.0076,-0.0025,0.0012,0.0027,0.0015,0.0035,0.0058,0.0047,0.0035,0.0033,0.0031,0.0057,0.0058,0.0051,0.0051,0.0052,0.0052,0,-0.0099,-0.0095,-0.0117,-0.0114,-0.0107,-0.0091,-0.0097,-0.0078,-0.0068,-0.0063,-0.0025,-0.0003,0.0035,0.0062,0.0081,0.0051,0.0102,0.0058,0.0018,0.0044,0.0041,0.0038,0.0062,0.0062,0.0055,0.0055,0.0055,0,-0.0063,-0.0061,-0.0067,-0.0065,-0.0053,-0.0062,-0.0027,-0.003,-0.0036,0.0024,0.0024,0.0057,0.0101,0.0109,0.0117,0.0135,0.0142,0.014,0.0134,0.0138,0.0168,0.0163,0.0159,0.0215,0.0215,0.0215,0,0,-0.005,-0.0063,-0.0046,-0.0059,-0.0056,-0.0031,-0.0025,-0.0013,0.0007,0.0016,0.0048,0.008,0.0105,0.012,0.0147,0.0158,0.0191,0.0156,0.0149,0.0142,0.0142,0.0171,0.0166,0.0216,0.0216,0.0216,0,0,-0.004,-0.0033,-0.0022,-0.0039,-0.0027,-0.0,-0.0004,0.0012,0.0032,0.0032,0.0082,0.0093,0.0104,0.0137,0.0143,0.0157,0.0191,0.0191,0.013,0.0122,0.0114,0.0106,0.019,0,0,0,0,0,-0.0015,-0.0035,-0.0026,-0.0026,-0.0012,-0.0005,-0.0001,0.0021,0.0032,0.0027,0.0056,0.009,0.0145,0.0152,0.0163,0.015,0.0229,0.0226,0.0224,0.0149,0.0139,0.0131,0,0,0,0,0,0,-0.0015,-0.0016,-0.0025,-0.0002,0.0001,-0.0005,0.0021,0.0027,0.0032,0.0035,0.0083,0.0092,0.0127,0.015,0.0159,0.0146,0.0187,0.0228,0.0226,0.0224,0.0145,0.0138,0.0131,0,0,0,0,0,-0.0015,-0.0015,-0.0005,-0.0001,0.0002,0.0028,0.0021,0.0026,0.0031,0.0081,0.009,0.0045,0.0126,0.0136,0.0156,0.014,0.0181,0.0184,0.0227,0.0225,0.0224,0.0142,0,0,0,0,0,0,-0.0015,-0.0003,-0.0004,-0.0001,-0.0,0.0029,0.0032,0.0026,0.0078,0.0086,0.0047,0.0048,0.0125,0.0134,0.0141,0.0135,0.0176,0.018,0.0182,0.0225,0.0224,0.0223,0,0,0,0,0,0,-0.0002,-0.0001,-0.0002,-0.0003,0.0,0.003,0.0032,0.0065,0.0079,0.0042,0.0044,0.0047,0.0121,0.0132,0.0138,0.0188,0.0172,0.0176,0.0178,0.0179,0.0225,0.0224,0,0,0,0,0,0,-0.0001,0.0,-0.0003,-0.0001,0.0002,0.0036,0.0062,0.0079,0.006,0.004,0.0061,0.0061,0.0119,0.0126,0.0135,0.0183,0.0187,0.0173,0.0175,0.0176,0.0177,0,0,0,0,0,0,0,0.0,-0.0019,-0.0022,0.0001,0.0003,0.0025,0.0026,0.0026,0.006,0.006,0.0061,0.0061,0.0154,0.0158,0.0161,0.0178,0,0,0.0172,0.0174,0,0,0,0,0,0,0,0,-0.0019,-0.0019,-0.0022,-0.0021,-0.0021,0.0025,0.0026,0.0026,0.006,0.006,0.0061,0.0061,0.0155,0.0158,0.0161,0,0,0,0,0,0,0,0,0,0,0,0,0,0,0,-0.0022,-0.0021,0,0.0025,0.0025,0.0026,0.006,0.006,0.0061,0.0061,0.0156,0.0158,0.0161,0,0,0,0,0,0,0,0,0,0,0,0,0,0,0,0,0,0,0,0,0,0,0,0,0,0,0,0,0,0,0,0,0,0,0,0,0,0,0,0,0,0,0,0,0,0,0,0,0,0,0,0,0,0,0,0,0,0,0,0,0,0,0,0,0,0,0,0,0]}]]]